This is the latest recevied weather packets stored in our database for station/object W5DRO-13. If no packets are shown the sender has not sent any weather packets the latest 1 day(s).
| Time | Temp. | Humidity | Pressure | Rain* | Wind** | Luminosity | Snow |
|---|---|---|---|---|---|---|---|
| 1778029103 | 10° C | 80% | 1011.6 hPa | 0 mm | 0.89 m/s, 94° | - | - |
| 1778028800 | 10.56° C | 79% | 1011.5 hPa | 0 mm | 1.34 m/s, 285° | - | - |
| 1778028496 | 10.56° C | 79% | 1011.5 hPa | 0 mm | 0.45 m/s, 61° | - | - |
| 1778028194 | 10.56° C | 78% | 1011.5 hPa | 0 mm | 0.89 m/s, 47° | - | - |
| 1778027889 | 10.56° C | 77% | 1011.5 hPa | 0 mm | 0.45 m/s, 33° | - | - |
| 1778027586 | 10.56° C | 77% | 1011.6 hPa | 0 mm | 1.79 m/s, 2° | - | - |
| 1778027282 | 10.56° C | 77% | 1011.3 hPa | 0 mm | 0 m/s | - | - |
| 1778026979 | 10.56° C | 76% | 1011.2 hPa | 0 mm | 0.45 m/s, 61° | - | - |
| 1778026674 | 11.11° C | 76% | 1011.2 hPa | 0 mm | 1.79 m/s, 343° | - | - |
| 1778026372 | 11.11° C | 76% | 1011.4 hPa | 0 mm | 0.45 m/s, 41° | - | - |
| 1778026069 | 11.11° C | 75% | 1011.2 hPa | 0 mm | 1.34 m/s, 345° | - | - |
| 1778025766 | 11.11° C | 74% | 1011 hPa | 0 mm | 0.89 m/s, 332° | - | - |
| 1778025463 | 11.11° C | 74% | 1011.1 hPa | 0 mm | 0.89 m/s, 55° | - | - |
| 1778025161 | 11.11° C | 74% | 1011.4 hPa | 0 mm | 1.79 m/s, 45° | - | - |
| 1778024857 | 11.11° C | 73% | 1011.4 hPa | 0 mm | 0.89 m/s, 65° | - | - |
| 1778024555 | 11.67° C | 73% | 1011.5 hPa | 0 mm | 1.79 m/s, 54° | - | - |
| 1778024251 | 11.67° C | 72% | 1011.5 hPa | 0 mm | 1.79 m/s, 51° | - | - |
| 1778023950 | 11.67° C | 72% | 1011.3 hPa | 0 mm | 1.34 m/s, 80° | - | - |
| 1778023646 | 11.67° C | 71% | 1011.3 hPa | 0 mm | 1.34 m/s, 32° | - | - |
| 1778023344 | 11.67° C | 71% | 1011.3 hPa | 0 mm | 1.34 m/s, 36° | - | - |
| 1778023040 | 11.67° C | 71% | 1010.5 hPa | 0 mm | 1.79 m/s, 57° | - | - |
| 1778022740 | 11.67° C | 71% | 1010.9 hPa | 0 mm | 0.45 m/s, 41° | - | - |
| 1778022437 | 11.67° C | 71% | 1010.6 hPa | 0 mm | 1.34 m/s, 54° | - | - |
| 1778022133 | 11.67° C | 71% | 1011.3 hPa | 0 mm | 1.34 m/s, 83° | - | - |
| 1778021830 | 11.67° C | 72% | 1011 hPa | 0 mm | 1.34 m/s, 41° | - | - |
* Rain latest hour (hover to see other rain measurements)
** Current wind speed in m/s (hover to see current wind gust speed)